Location: Gleizolles
(44.4833°N, 6.7667°E)
Time: 13:14:49
(UTC+00:00)

A-11 Canister half - Pass Details

Date: 15 June 2024
Orbit: 1515 x 1684 km, 47.2° (Epoch: 24 July)

Event Time Altitude Azimuth Distance (km) Brightness Sun altitude
Rises 19:37:34 0° 240° (WSW) 4,917 12.0 -3.4°
Reaches altitude 10° 19:40:44 10° 239° (WSW) 3,919 11.4 -3.9°
Maximum altitude 19:50:47 80° 155° (SSE) 1,659 9.1 -5.2°
Drops below altitude 10° 20:00:31 10° 70° (ENE) 3,805 10.8 -6.5°
Sets 20:03:34 0° 70° (ENE) 4,768 11.3 -6.9°
